2/13/17 High Wind Event Warnings / Advisories Issued

Page 2 of 3 Previous  1, 2, 3  Next

View previous topic View next topic Go down

Re: 2/13/17 High Wind Event Warnings / Advisories Issued

Post by jmanley32 on Mon Feb 13, 2017 7:53 am

957 power outages mainly across queens and brooklyn, outage map says weather related.
avatar
jmanley32
Senior Enthusiast & Loyalist
Senior Enthusiast & Loyalist

Posts : 13312
Join date : 2013-12-12
Age : 36
Location : Yonkers, NY

View user profile

Back to top Go down

Re: 2/13/17 High Wind Event Warnings / Advisories Issued

Post by Frank_Wx on Mon Feb 13, 2017 8:08 am

My car was rocky on my commute this morning. Definitely some wind out there. Be careful.

_________________
Snow Accumulation Archive - Cranford, NJ
2013-2014: 62.1"
2014-2015: 56.0"
2015-2016: 34.0"
2016-2017: 31.5"
2017-2018:

________________________________________________________________________________________________________
CLICK HERE to view NJ Strong Snowstorm Classifications
avatar
Frank_Wx
Godzilla Seeker
Godzilla Seeker

Posts : 17128
Join date : 2013-01-05
Age : 25
Location : Cranford, NJ

View user profile http://njstrongweather.blogspot.com/

Back to top Go down

Re: 2/13/17 High Wind Event Warnings / Advisories Issued

Post by RJB8525 on Mon Feb 13, 2017 8:08 am

Winds are about 12 mph, 30*

Gusts not sure but I had to brace for impact lol
avatar
RJB8525
Pro Enthusiast
Pro Enthusiast

Posts : 1674
Join date : 2013-02-06
Age : 31
Location : Hackettstown, NJ

View user profile

Back to top Go down

Re: 2/13/17 High Wind Event Warnings / Advisories Issued

Post by algae888 on Mon Feb 13, 2017 8:57 am

For whatever reason Northwest winds usually verify here tree branches down all over the road
avatar
algae888
Advanced Forecaster
Advanced Forecaster

Posts : 4454
Join date : 2013-02-05
Age : 55
Location : mt. vernon, new york

View user profile

Back to top Go down

Re: 2/13/17 High Wind Event Warnings / Advisories Issued

Post by RJB8525 on Mon Feb 13, 2017 9:22 am

have some nice snow showers going this morning along with the wind
avatar
RJB8525
Pro Enthusiast
Pro Enthusiast

Posts : 1674
Join date : 2013-02-06
Age : 31
Location : Hackettstown, NJ

View user profile

Back to top Go down

Re: 2/13/17 High Wind Event Warnings / Advisories Issued

Post by jmanley32 on Mon Feb 13, 2017 9:45 am

Al.it's ripping. Up to 1820 power outages IL about an hr I'm out gping to various high elevaton areas away from buildings etc to measure wish not so damn cold.
avatar
jmanley32
Senior Enthusiast & Loyalist
Senior Enthusiast & Loyalist

Posts : 13312
Join date : 2013-12-12
Age : 36
Location : Yonkers, NY

View user profile

Back to top Go down

Re: 2/13/17 High Wind Event Warnings / Advisories Issued

Post by Radz on Mon Feb 13, 2017 10:18 am

Highest gust 32.7 here so far...
avatar
Radz
Pro Enthusiast
Pro Enthusiast

Posts : 599
Join date : 2013-01-12
Location : Cortlandt Manor NY

View user profile

Back to top Go down

Re: 2/13/17 High Wind Event Warnings / Advisories Issued

Post by jmanley32 on Mon Feb 13, 2017 10:22 am

algae888 wrote:For whatever reason Northwest winds usually verify here tree branches down all over the road
they must b verify in mt vernon ur lead the way with 812 power outages in mt vernon 4401 area wide coned. Last half hr that was doubled from 2000. The winds def get stronger and I font think we at height yet. I recorded a gust to 24 mph but that doesn't seem accurate given the amount of tree rocking.
avatar
jmanley32
Senior Enthusiast & Loyalist
Senior Enthusiast & Loyalist

Posts : 13312
Join date : 2013-12-12
Age : 36
Location : Yonkers, NY

View user profile

Back to top Go down

Re: 2/13/17 High Wind Event Warnings / Advisories Issued

Post by jmanley32 on Mon Feb 13, 2017 10:39 am

Wow 5,028 outages and rising, what energy company is in nj im curious to see cuz they have higher winds than here.
avatar
jmanley32
Senior Enthusiast & Loyalist
Senior Enthusiast & Loyalist

Posts : 13312
Join date : 2013-12-12
Age : 36
Location : Yonkers, NY

View user profile

Back to top Go down

Re: 2/13/17 High Wind Event Warnings / Advisories Issued

Post by cooladi on Mon Feb 13, 2017 10:39 am

Little snow squall just passed through here at 1 WTC...

cooladi
Pro Enthusiast
Pro Enthusiast

Posts : 179
Join date : 2013-01-08
Location : Franklin Square, NY and One World Trade Center, NY

View user profile

Back to top Go down

Re: 2/13/17 High Wind Event Warnings / Advisories Issued

Post by algae888 on Mon Feb 13, 2017 10:41 am

white plains had a gust to 72mph. winds have died down some here at the moment..
CITY SKY/WX TMP DP RH WIND PRES REMARKS
White Plains MOSUNNY 34 19 54 NW37G72 29.67R WCI 19
Newburgh PTSUNNY 32 21 64 NW25G40 29.74R WCI 19
Montgomery CLOUDY 33 21 61 NW18G31 29.76R WCI 22
Poughkeepsie MOSUNNY 33 16 49 NW22G33 29.74R WCI 21
Albany PTSUNNY 25 14 63 NW18G30 29.79R WCI 11
$$
avatar
algae888
Advanced Forecaster
Advanced Forecaster

Posts : 4454
Join date : 2013-02-05
Age : 55
Location : mt. vernon, new york

View user profile

Back to top Go down

Re: 2/13/17 High Wind Event Warnings / Advisories Issued

Post by dkodgis on Mon Feb 13, 2017 10:49 am

About a steady 20 mph and gusts up to 38. I could swear by being out the gusts are much higher but that is not what the weather stations says nor weather.gov and speaking of wind, look at the clouds racing by in the sky. The clouds are hauling a$$ today
avatar
dkodgis
Pro Enthusiast
Pro Enthusiast

Posts : 391
Join date : 2013-12-29

View user profile

Back to top Go down

Re: 2/13/17 High Wind Event Warnings / Advisories Issued

Post by jmanley32 on Mon Feb 13, 2017 10:59 am

algae888 wrote:white plains had a gust to 72mph. winds have died down some here at the moment..
CITY           SKY/WX    TMP DP  RH WIND       PRES   REMARKS
White Plains   MOSUNNY   34  19  54 NW37G72   29.67R WCI  19
Newburgh       PTSUNNY   32  21  64 NW25G40   29.74R WCI  19
Montgomery     CLOUDY    33  21  61 NW18G31   29.76R WCI  22
Poughkeepsie   MOSUNNY   33  16  49 NW22G33   29.74R WCI  21
Albany         PTSUNNY   25  14  63 NW18G30   29.79R WCI  11
$$
holt crap well winds def verified that had b a 850mb level wind that worked it's way down but I'm suspicious if that's a typo.
avatar
jmanley32
Senior Enthusiast & Loyalist
Senior Enthusiast & Loyalist

Posts : 13312
Join date : 2013-12-12
Age : 36
Location : Yonkers, NY

View user profile

Back to top Go down

Re: 2/13/17 High Wind Event Warnings / Advisories Issued

Post by skinsfan1177 on Mon Feb 13, 2017 11:05 am

Serious winds here all morning
avatar
skinsfan1177
Senior Enthusiast & Loyalist
Senior Enthusiast & Loyalist

Posts : 3739
Join date : 2013-01-07
Age : 40
Location : Point Pleasant Boro

View user profile

Back to top Go down

Re: 2/13/17 High Wind Event Warnings / Advisories Issued

Post by jmanley32 on Mon Feb 13, 2017 11:10 am

skinsfan1177 wrote:Serious winds here all morning
ya this def verified.
avatar
jmanley32
Senior Enthusiast & Loyalist
Senior Enthusiast & Loyalist

Posts : 13312
Join date : 2013-12-12
Age : 36
Location : Yonkers, NY

View user profile

Back to top Go down

Re: 2/13/17 High Wind Event Warnings / Advisories Issued

Post by Vinnydula on Mon Feb 13, 2017 11:31 am

Just had a gust at 58mph in Westchester
avatar
Vinnydula
Pro Enthusiast
Pro Enthusiast

Posts : 462
Join date : 2013-12-12
Location : Dobbs ferry

View user profile

Back to top Go down

Re: 2/13/17 High Wind Event Warnings / Advisories Issued

Post by jmanley32 on Mon Feb 13, 2017 11:36 am

Ya the 850s are mixing down I got image of major tree and lines down in mt. Vernon been drive round per coned map. Vinny did u record thst or nws report?
avatar
jmanley32
Senior Enthusiast & Loyalist
Senior Enthusiast & Loyalist

Posts : 13312
Join date : 2013-12-12
Age : 36
Location : Yonkers, NY

View user profile

Back to top Go down

Re: 2/13/17 High Wind Event Warnings / Advisories Issued

Post by SoulSingMG on Mon Feb 13, 2017 11:40 am

I'm stuck at LGA (where we just had 61 mph gust, mind you) with a two-hour delay at least.

Once again, a wind event where the NWS doesn't issue a High Wind Warning when needed, yet the event is far stronger than the last time they did issue a HWW. Dumbfounding.
avatar
SoulSingMG
Senior Enthusiast & Loyalist
Senior Enthusiast & Loyalist

Posts : 2011
Join date : 2013-12-11
Location : Port Chester, NY

View user profile

Back to top Go down

Re: 2/13/17 High Wind Event Warnings / Advisories Issued

Post by rb924119 on Mon Feb 13, 2017 12:00 pm

algae888 wrote:white plains had a gust to 72mph. winds have died down some here at the moment..
CITY           SKY/WX    TMP DP  RH WIND       PRES   REMARKS
White Plains   MOSUNNY   34  19  54 NW37G72   29.67R WCI  19
Newburgh       PTSUNNY   32  21  64 NW25G40   29.74R WCI  19
Montgomery     CLOUDY    33  21  61 NW18G31   29.76R WCI  22
Poughkeepsie   MOSUNNY   33  16  49 NW22G33   29.74R WCI  21
Albany         PTSUNNY   25  14  63 NW18G30   29.79R WCI  11
$$

You sure that isn't knots (79 mph)? Those obs were taken from METARs which record in knots, only reason I ask.

rb924119
Meteorologist
Meteorologist

Posts : 3662
Join date : 2013-02-06
Age : 25
Location : Greentown, Pa/Fishkill, NY

View user profile

Back to top Go down

Re: 2/13/17 High Wind Event Warnings / Advisories Issued

Post by algae888 on Mon Feb 13, 2017 12:03 pm

rb924119 wrote:
algae888 wrote:white plains had a gust to 72mph. winds have died down some here at the moment..
CITY           SKY/WX    TMP DP  RH WIND       PRES   REMARKS
White Plains   MOSUNNY   34  19  54 NW37G72   29.67R WCI  19
Newburgh       PTSUNNY   32  21  64 NW25G40   29.74R WCI  19
Montgomery     CLOUDY    33  21  61 NW18G31   29.76R WCI  22
Poughkeepsie   MOSUNNY   33  16  49 NW22G33   29.74R WCI  21
Albany         PTSUNNY   25  14  63 NW18G30   29.79R WCI  11
$$

You sure that isn't knots (79 mph)? Those obs were taken from METARs which record in knots, only reason I ask.
pretty pos it mph. winds really cranking now IMPESSIVE!
avatar
algae888
Advanced Forecaster
Advanced Forecaster

Posts : 4454
Join date : 2013-02-05
Age : 55
Location : mt. vernon, new york

View user profile

Back to top Go down

Re: 2/13/17 High Wind Event Warnings / Advisories Issued

Post by SoulSingMG on Mon Feb 13, 2017 12:14 pm

"wind advisory" my a$$...

avatar
SoulSingMG
Senior Enthusiast & Loyalist
Senior Enthusiast & Loyalist

Posts : 2011
Join date : 2013-12-11
Location : Port Chester, NY

View user profile

Back to top Go down

Re: 2/13/17 High Wind Event Warnings / Advisories Issued

Post by jmanley32 on Mon Feb 13, 2017 12:16 pm

Ya wow damage all over.
avatar
jmanley32
Senior Enthusiast & Loyalist
Senior Enthusiast & Loyalist

Posts : 13312
Join date : 2013-12-12
Age : 36
Location : Yonkers, NY

View user profile

Back to top Go down

Re: 2/13/17 High Wind Event Warnings / Advisories Issued

Post by jmanley32 on Mon Feb 13, 2017 12:21 pm

SoulSingMG wrote:"wind advisory" my a$$...

Wow u don't get that from 50 mph max winds. Still time issue warning as this is far from over.
avatar
jmanley32
Senior Enthusiast & Loyalist
Senior Enthusiast & Loyalist

Posts : 13312
Join date : 2013-12-12
Age : 36
Location : Yonkers, NY

View user profile

Back to top Go down

Re: 2/13/17 High Wind Event Warnings / Advisories Issued

Post by algae888 on Mon Feb 13, 2017 12:28 pm

A tree fell across the Hutchinson River Parkway around Exit 18 road crews clearing it now. Parkway backed up to Exit 23 feel bad for those cars stuck there doesn't look any one got hurt
avatar
algae888
Advanced Forecaster
Advanced Forecaster

Posts : 4454
Join date : 2013-02-05
Age : 55
Location : mt. vernon, new york

View user profile

Back to top Go down

Re: 2/13/17 High Wind Event Warnings / Advisories Issued

Post by jmanley32 on Mon Feb 13, 2017 12:36 pm

Wow sheesh that's lucky.
avatar
jmanley32
Senior Enthusiast & Loyalist
Senior Enthusiast & Loyalist

Posts : 13312
Join date : 2013-12-12
Age : 36
Location : Yonkers, NY

View user profile

Back to top Go down

Re: 2/13/17 High Wind Event Warnings / Advisories Issued

Post by Sponsored content


Sponsored content


Back to top Go down

Page 2 of 3 Previous  1, 2, 3  Next

View previous topic View next topic Back to top

- Similar topics

 
Permissions in this forum:
You cannot reply to topics in this forum